Regional Weather Roundup
Issued by NWS

Home | Current Version | Previous Version | Text Only | Print | Product List | Glossary Off
Versions: 1 2 3 4 5 6 7 8 9 10 11 12 13 14 15 16 17 18 19 20 21 22 23 24 25 26 27 28 29 30 31 32 33 34 35 36 37 38 39 40 41 42 43 44 45 46 47 48 49 50

000
ASUS43 KMKX 311600
RWRWI

WISCONSIN REGIONAL WEATHER ROUNDUP
NATIONAL WEATHER SERVICE MILWAUKEE/SULLIVAN WI
1100 AM CDT FRI JUL 31 2015

NOTE: "FAIR" INDICATES FEW OR NO CLOUDS BELOW 12,000 FEET WITH NO
SIGNIFICANT WEATHER AND/OR OBSTRUCTIONS TO VISIBILITY.

WIZ001-002-006>008-014>016-023>028-311700-
NORTHWEST WISCONSIN

CITY           SKY/WX    TMP DP  RH WIND       PRES   REMARKS
SUPERIOR ARPT  SUNNY     73  56  54 W15G21    29.98S
ASHLAND        SUNNY     74  55  51 W16G22    29.96S
HAYWARD        SUNNY     74  51  44 MISG      30.00S
SIREN          SUNNY     73  55  53 NW13G18   30.03S
CUMBERLAND     SUNNY     70  52  52 W18       30.03S
RICE LAKE      SUNNY     72  55  56 W12G18    30.04S
CHETEK         SUNNY     73  56  56 W8G18     30.02F
LADYSMITH      SUNNY     73  54  50 W14       30.02S
EAU CLAIRE     NOT AVBL
MENOMONIE      SUNNY     76  52  43 W20G25    30.04S
NEW RICHMOND   SUNNY     74  53  47 W16G23    30.06S
OSCEOLA        SUNNY     74  54  49 W15       30.08S
$$

WIZ003>005-009-010-017-018-311700-
NORTH CENTRAL WISCONSIN

CITY           SKY/WX    TMP DP  RH WIND       PRES   REMARKS
MANITOWISH WTR MOSUNNY   69  55  60 NW16      29.96S
ARBOR VITAE    MOSUNNY   72  56  57 NW10G20   29.96S
WOODRUFF       MOSUNNY   72  56  57 NW10G20   29.96S
RHINELANDER    MOSUNNY   73  53  49 NW13G21   29.97R
EAGLE RIVER    PTSUNNY   70  52  53 NW16G24   29.94S
LAND O LAKES   MOSUNNY   71  52  51 NW13G21   29.94F
PHILLIPS       MOSUNNY   72  55  56 W13       29.97F
TOMAHAWK       SUNNY     71  54  55 NW14G20   29.98S
MEDFORD        SUNNY     71  55  58 W14G23    30.00S
MERRILL        NOT AVBL
$$

WIZ029-030-035-036-043>047-311700-
CENTRAL WISCONSIN

CITY           SKY/WX    TMP DP  RH WIND       PRES   REMARKS
WAUSAU         MOSUNNY   76  52  43 NW20G28   29.96S
MOSINEE        MOSUNNY   73  54  49 NW18G26   29.99S
MARSHFIELD     SUNNY     75  51  43 NW20G29   30.01S
STEVENS POINT  SUNNY     73  52  49 NW12G25   29.98F
WAUPACA        SUNNY     78  51  38 W17G26    29.96S
WAUTOMA        NOT AVBL
WISC RAPIDS    MOSUNNY   77  51  40 NW21G28   30.01R
CAMP DOUGLAS   NOT AVBL
$$

WIZ011>013-019>022-031-037>040-048>050-311700-
NORTHEAST WISCONSIN

CITY           SKY/WX    TMP DP  RH WIND       PRES   REMARKS
ANTIGO         SUNNY     72  57  57 W17G25    29.96S
SHAWANO        SUNNY     77  58  51 W12G20    29.93S
OCONTO         MOSUNNY   77  58  52 NW10G18   29.89S
STURGEON BAY   PTSUNNY   75  57  53 W10       29.91S
GREEN BAY      SUNNY     77  60  55 NW16      29.92R
MANITOWOC      NOT AVBL
APPLETON       PTSUNNY   75  55  50 W18G24    29.95S
CLINTONVILLE   MOSUNNY   77  54  44 NW16G22   29.93F
OSHKOSH        SUNNY     78  53  41 NW21G30   29.95S
$$

WIZ032>034-041-042-053>061-311700-
SOUTHWEST WISCONSIN

CITY           SKY/WX    TMP DP  RH WIND       PRES   REMARKS
LA CROSSE      SUNNY     79  55  43 NW10      30.04F
SPARTA         SUNNY     77  50  38 NW16G24   30.04F
VIROQUA        SUNNY     74  55  51 NW14      30.07S
BOSCOBEL       SUNNY     82  53  36 NW17G23   30.06R HX  81
PRAIRIE DU CHI SUNNY     80  49  34 W10G16    30.06S HX  80
PLATTEVILLE    SUNNY     78  61  55 W13G18    30.07S
$$

WIZ056-057-062-063-064-067-068-311700-
SOUTH CENTRAL WISCONSIN

CITY           SKY/WX    TMP DP  RH WIND       PRES   REMARKS
REEDSBURG      SUNNY     78  53  41 W16G26    30.02S
BARABOO/DELLS  SUNNY     77  47  33 NW15G26   30.02S
LONE ROCK      NOT AVBL
MINERAL POINT  SUNNY     79  54  41 NW8       30.07R
MADISON        MOSUNNY   79  51  37 NW14G26   30.00F
MIDDLETON      SUNNY     80  51  36 W18G24    30.02S HX  80
WATERTOWN      SUNNY     78  58  50 W15G22    29.98F
MONROE         SUNNY     77  59  53 W16G22    30.04S
JANESVILLE     SUNNY     82  59  44 W17G23    30.01S HX  82
$$

WIZ051-052-058>065-066-070>072-311700-
SOUTHEAST WISCONSIN

CITY           SKY/WX    TMP DP  RH WIND       PRES   REMARKS
MILWAUKEE      MOSUNNY   83  51  33 W21G29    29.96F HX  81
WAUKESHA       SUNNY     81  55  41 W15G21    29.98F HX  80
MILWAUKEE/TIMM SUNNY     81  52  36 W20G26    29.97S HX  80
RACINE         SUNNY     82  55  39 NW10G26   29.98F HX  81
BURLINGTON     SUNNY     80  55  42 W16G22    29.99S HX  80
KENOSHA        SUNNY     82  58  43 W15G24    29.98F HX  82
FOND DU LAC    MOSUNNY   79  54  41 NW18G28   29.96S
SHEBOYGAN      SUNNY     79  54  41 W20G29    29.93S
WEST BEND      SUNNY     79  52  38 NW21G29   29.96F
JUNEAU         SUNNY     76  54  47 W10G22    29.99S
$$

LSZ147-162-311700-
LAKE SUPERIOR

STATION/POSITION TIME  TEMP    WIND        PRES    WAVE
                       AIR SEA DIR/SP/G            HT/PER
                 (UTC) (F)     (DEG/KT/KT) (MB)    (FT/S)
W MID LAKE BUOY  1450   56 53  250/ 10/ 12 1011.8R   2/ 4
DEVILS ISLAND    1500   60     250/ 16/ 19 1013.3S
PORT WING        1540   68     260/ 14/ 20 1014.9R
SAXON HARBOR     1500   67                 1013.5S
$$

LMZ867-665-643>646-311700-
LAKE MICHIGAN

STATION/POSITION TIME  TEMP    WIND        PRES    WAVE
                       AIR SEA DIR/SP/G            HT/PER
                 (UTC) (F)     (DEG/KT/KT) (MB)    (FT/S)
CHAMBERS ISLAND  1500   74     290/  4/  7 1011.5S
S GREEN BAY BUOY 1500   68 69  270/ 10/ 12 1013.6F
N MID LAKE BUOY  1450   67 68  270/ 12/ 16 1010.5R   2/ 4
NORTHPORT PIER   1500   71     310/  7/ 14 1011.2S
ALGOMA LAKESHORE 1512          280/  8/ 15   N/A
KEWAUNEE LAKESHO 1500   75     300/  9/ 16 1011.7F
SHEBOYGAN LAKESH 1500   77     270/ 11/ 14 1013.3F
PORT WASHINGTON  1540   81     290/ 13/ 21 1014.2F
ATWATER BUOY     1500   74 63  280/ 12/ 16 1015.7F
MILWAUKEE LAKESH 1500   78     290/ 13/ 17   N/A
KENOSHA   LAKESH 1500   79     270/ 11/ 15 1014.9F
$$

TC  - TEMPERATURE IN CELSIUS
VSB - VISIBILITY IN STATUTE MILES
WCI - WIND CHILL INDEX
HX  - HEAT INDEX




USA.gov is the U.S. government's official web portal to all federal, state and local government web resources and services.